#timestamp,LO_Frequency,Hit,StdDev 
1550030415.0,286047000.2,N
1550030415.9,286047000.2,N
1550030435.8,286046999.4,N
1550030455.6,286046996.1,N
1550030475.5,286046993.7,N
1550030495.3,286046992.6,N
1550030515.1,286046988.6,N
1550030535.9,286046987.9,N
1550030555.7,286046984.1,N
1550030575.5,286046982.5,N
1550030595.4,286046980.5,N
1550030615.2,286046981.5,N
1550030635.1,286046979.8,N
1550030636.0,286046979.8,N
1550030655.8,286046977.4,N
1550030675.6,286046976.0,N
1550030695.5,286046976.8,N
1550030715.3,286046974.1,N
1550030735.1,286046978.6,N
1550030755.9,286046980.2,N
1550030775.7,286046980.3,N
1550030795.6,286046980.1,N
1550030815.4,286046977.8,N
1550030835.2,286046980.2,N
1550030855.1,286046979.7,N
1550030856.0,286046979.7,N
1550030875.8,286046979.1,N
1550030895.6,286046981.1,N
1550030915.5,286046978.9,N
1550030935.3,286046982.2,N
1550030955.2,286046983.7,N
1550030975.9,286046988.4,N
1550030995.7,286046991.5,N
1550031015.6,286046994.3,N
1550031035.4,286046990.2,N
1550031055.2,286046990.1,N
1550031075.1,286046991.3,N
1550031076.0,286046991.3,N
1550031095.8,286046992.0,N
1550031115.7,286046994.7,N
1550031135.5,286046995.7,N
1550031155.3,286046996.2,N
1550031175.2,286046997.6,N
1550031195.9,286046997.5,N
1550031215.7,286046997.4,N
1550031235.6,286046998.9,N
1550031255.4,286046998.4,N
1550031275.2,286046997.0,N
1550031295.1,286046996.0,N
1550031296.0,286046996.0,N
1550031315.8,286046993.0,N
1550031335.7,286046988.8,N
1550031355.5,286046987.9,N
1550031375.3,286046985.9,N
1550031395.2,286046982.5,N
1550031415.0,286046980.7,Y
1550031415.9,286046980.7,P
1550031435.8,286046991.5,N
1550031455.6,286046989.2,N
1550031475.4,286046990.6,N
1550031495.3,286046992.0,N
1550031515.1,286046991.7,N
1550031516.0,286046991.7,N
1550031535.8,286046993.6,N
1550031555.7,286046995.4,N
1550031575.5,286046996.7,N
1550031595.3,286046999.4,N
1550031615.2,286047001.2,N
1550031635.0,286046999.9,N
1550031635.9,286046999.9,N
1550031655.8,286047002.8,N
1550031675.6,286047002.2,N
1550031695.4,286047003.8,N
1550031715.3,286047005.3,N
1550031735.1,286047001.8,N
1550031755.8,286047002.0,N
1550031775.7,286047004.0,N
1550031795.5,286047003.1,N
1550031815.4,286047003.2,N
1550031835.2,286047003.2,N
1550031855.0,286047005.5,N
1550031855.9,286047005.5,N
1550031875.8,286047005.8,N
1550031895.6,286047004.6,N
1550031915.4,286047004.9,N
1550031935.3,286047006.0,N
1550031955.1,286047002.1,N
1550031975.9,286046998.1,N
1550031995.7,286046999.6,N
1550032015.5,286046995.1,N
1550032035.4,286046997.9,N
1550032055.2,286046996.5,N
1550032075.0,286046999.3,N
1550032075.9,286046999.3,N
1550032095.8,286046996.6,N
1550032115.6,286046995.5,N
1550032135.4,286046996.4,N
1550032155.3,286046993.1,N
1550032175.1,286046988.6,Y
1550032195.9,286046988.2,P
1550032215.7,286046986.7,N
1550032235.5,286046984.1,N
1550032255.4,286046982.2,N
1550032275.2,286046982.7,N
1550032295.0,286046981.2,N
1550032296.0,286046981.2,N
1550032315.8,286046986.3,N
1550032335.6,286046977.8,Y
1550032355.5,286046990.7,P
1550032375.3,286046991.6,P
1550032395.1,286046991.0,P
1550032415.9,286046991.3,Y
1550032435.7,286047000.5,P
1550032455.6,286046999.9,N
1550032475.4,286046998.1,N
1550032495.2,286046996.6,N
1550032515.1,286046996.8,N
1550032516.0,286046996.8,N
1550032535.8,286046997.3,N
1550032555.6,286046997.6,N
1550032575.5,286046995.6,N
1550032595.3,286046995.0,N
1550032615.2,286046995.7,N
1550032635.9,286046996.0,N
1550032655.7,286046995.8,N
1550032675.6,286046996.0,N
1550032695.4,286046995.3,N
1550032715.2,286046996.6,N
1550032735.1,286046997.1,N
1550032736.0,286046997.1,N
1550032755.8,286046996.7,N
1550032775.7,286046996.9,N
1550032795.5,286046997.6,N
1550032815.3,286046995.8,N
1550032835.2,286046993.5,Y
1550032855.0,286046997.8,P
1550032855.9,286046997.8,P
1550032875.7,286046997.9,P
1550032895.6,286046996.1,Y
1550032915.4,286046996.9,P
1550032935.3,286046996.6,P
1550032955.1,286046997.8,P
1550032956.0,286046997.8,Y
1550032975.8,286046998.3,P
1550032995.7,286046999.2,N
1550033015.5,286046998.6,N
1550033035.4,286046998.4,N
1550033055.2,286046998.2,N
1550033075.0,286046996.5,Y
1550033075.9,286046996.5,P
1550033095.8,286046998.8,N
1550033115.6,286046996.8,P
1550033135.4,286046996.7,Y
1550033155.3,286046996.5,P
1550033175.1,286046996.6,P
1550033195.9,286046996.6,P
1550033215.7,286046999.2,N
1550033235.5,286046998.1,N
1550033255.4,286047002.5,N
1550033275.2,286047005.4,N
1550033295.0,286047007.0,N
1550033295.9,286047007.0,N
1550033315.8,286047009.9,N
1550033335.6,286047012.1,N
1550033355.5,286047013.3,N
1550033375.3,286047012.5,N
1550033395.1,286047016.8,N
1550033415.9,286047018.5,N
1550033435.7,286047017.5,N
1550033455.5,286047020.2,N
1550033475.4,286047018.4,N
1550033495.2,286047015.9,N
1550033515.0,286047018.0,N
1550033516.0,286047018.0,N
1550033535.8,286047019.7,N
1550033555.6,286047020.1,N
1550033575.5,286047019.3,N
1550033595.3,286047023.3,N
1550033615.1,286047025.2,N
1550033635.9,286047026.7,N
1550033655.7,286047026.3,N
1550033675.5,286047028.2,N
1550033695.4,286047027.4,N
1550033715.2,286047029.1,N
1550033735.1,286047030.4,Y
1550033736.0,286047030.4,P
1550033755.8,286047018.6,N
1550033775.6,286047017.6,N
1550033795.5,286047019.7,Y
1550033815.3,286046998.8,P
1550033835.1,286046998.7,N
1550033855.9,286046996.6,N
1550033875.7,286046996.4,N
1550033895.6,286046991.9,N
1550033915.4,286046988.7,N
1550033935.2,286046988.1,N
1550033955.1,286046986.2,N
1550033956.0,286046986.2,N
1550033975.8,286046982.6,N
1550033995.6,286046982.7,N
